Flag for China Weather past 2 weeks in Lanzhou, Gansu, China

Now
46 °F

Clear.


Feels Like: 44 °F
Forecast: 40 / 71 °F
Wind: 6 mph from Northwest

Location: Lanzhou / Zhongchuan

Current Time: Oct 2, 2014 at 12:43:29 AM

Latest Report: Oct 2, 2014 at 12:00 AM


Visibility: 4 mi

Pressure: 30.24 "Hg

Humidity: 93%

Dew point: 45 °F

Location of LanzhouLocation

Historic Weather in Lanzhou — Graph

°F

Lanzhou temperature yesterday

Maximum temperature yesterday: 61 °F (at 2:00 PM)
Minimum temperature yesterday: 46 °F (at 6:00 AM)
Average temperature yesterday: 53 °F

Past Weeks' High & Low Weather Summary

 TemperatureHumidityPressure
High75 °F (Sep 18, 4:00 PM)100% (Sep 18, 4:00 AM)30.30 "Hg (Sep 18, 4:00 AM)
Low41 °F (Sep 24, 5:00 AM)31% (Sep 19, 3:00 PM)29.89 "Hg (Sep 25, 3:00 PM)
Average55 °F78%30.15 "Hg
* Reported Sep 16 11:00 PM — Oct 1 11:00 PM, Lanzhou, Weather by CustomWeather, © 2014

Note: Actual official high and low records may vary slightly from our data, if they occured in-between our weather recording intervals... More about our weather records

Advertising

Lanzhou weather history for previous 24 hours

 ConditionsComfort  
Time TempWeatherWind HumidityBarometerVisibility
11:00 PM
Oct 1
48 °FClear.3 mph87%30.24 "Hg4 mi
10:00 PM50 °FClear.3 mph82%30.24 "Hg4 mi
9:00 PM52 °FClear.3 mph82%30.24 "Hg4 mi
8:00 PM54 °FClear.3 mph77%30.21 "Hg5 mi
7:00 PM57 °FSunny.3 mph63%30.21 "Hg10 mi
6:00 PM59 °FPassing clouds.3 mph59%30.18 "HgN/A
5:00 PM61 °FPassing clouds.6 mph55%30.18 "HgN/A
4:00 PM61 °FPassing clouds.6 mph52%30.18 "HgN/A
3:00 PM61 °FPassing clouds.6 mph55%30.18 "HgN/A
2:00 PM61 °FScattered clouds.6 mph55%30.21 "HgN/A
1:00 PM57 °FScattered clouds.6 mph67%30.24 "HgN/A
12:00 PM57 °FPassing clouds.6 mph63%30.27 "HgN/A
11:00 AM54 °FScattered clouds.6 mph63%30.30 "HgN/A
10:00 AM52 °FScattered clouds.3 mph77%30.30 "HgN/A
9:00 AM50 °FScattered clouds.3 mph82%30.27 "HgN/A
8:00 AM46 °FSprinkles. Scattered clouds.3 mph93%30.27 "Hg5 mi
7:00 AM48 °FSprinkles. Fog.10 mph87%30.24 "Hg2 mi
6:00 AM46 °FFog.3 mph93%30.21 "Hg1 mi
5:00 AM48 °FFog.1 mph94%30.21 "Hg2 mi
4:00 AM48 °FFog.1 mph94%30.21 "Hg2 mi
3:00 AM48 °FFog.3 mph94%30.21 "Hg2 mi
2:00 AM50 °FFog.1 mph94%30.21 "Hg2 mi
1:00 AM50 °FPassing clouds.1 mph94%30.21 "Hg4 mi
12:00 AM50 °FFog.3 mph94%30.24 "Hg2 mi
Weather by CustomWeather, © 2014

See weather overviewHow to use our weather pages